Location: D�rnast
(49.6426°N, 11.9755°E)
Time: 13:05:42
(UTC+00:00)

S3M - Pass Details

Date: 24 January 2021
Orbit: 949 x 1005 km, 83.0° (Epoch: 26 February)

Event Time Altitude Azimuth Distance (km) Brightness Sun altitude
Rises 18:01:52 0° 353° (N) 3,639 7.0 -20.4°
Reaches altitude 10° 18:04:28 10° 359° (N) 2,687 6.3 -20.8°
Maximum altitude 18:10:24 49° 74° (ENE) 1,212 4.1 -21.8°
Enters shadow 18:12:26 36° 123° (ESE) 1,466 4.5 -22.1°
